Location: B�rgermoos
(47.6500°N, 9.0667°E)
Time: 02:38:31
(UTC+00:00)

Courier 1B - Pass Details

Date: 02 August 2021
Orbit: 963 x 1209 km, 28.3° (Epoch: 19 September)

Event Time Altitude Azimuth Distance (km) Brightness Sun altitude
Rises 19:40:50 0° 237° (WSW) 4,104 11.0 -7.1°
Reaches altitude 10° 19:44:51 10° 218° (SW) 3,127 10.2 -7.7°
Maximum altitude 19:49:31 17° 181° (S) 2,597 9.4 -8.3°
Drops below altitude 10° 19:54:05 10° 144° (SE) 3,059 9.5 -8.9°
Enters shadow 19:54:17 10° 143° (SE) 3,096 9.5 -8.9°
